sat.trackr.live / text

‹ back to catalog

STARLINK-11467 [DTC]

NORAD 62068 · 2024-217M

PAYLOAD ACTIVE UNKNOWN

§ Identity

Operator
Country
US
Launch date
2024-11-24
Launch site
AFWTR
Launch vehicle
Mass (kg)
RCS (m²)

Purposes: comms

External: N2YO · Heavens-Above · Gunter

§ Orbital elements

Epoch: 2026-09-21T06:35:13.343136Z

Period
91.73 min
Inclination
53.1578°
Eccentricity
0.0001008
Mean motion
15.69768522 rev/d
Perigee alt
358.9 km
Apogee alt
360.2 km
Semi-major
6,737.7 km
B*
1.0109e-3
RAAN
186.9943°
Arg perigee
68.1378°
Mean anomaly
291.9748°
Rev number
10,589

§ Raw data

STARLINK-11467 [DTC]1 62068U 24217M   26264.27445999  .00124033  00000+0  10109-2 0  99922 62068  53.1578 186.9943 0001008  68.1378 291.9748 15.69768522105899

JSON: /api/v1/satellites/62068 · /tle

For live sub-satellite position, see the globe view (requires WebGL).

§ Visibility from observer

Set your observer location to see the next 7 days of passes ≥ 10°. The values pass through the URL so the page stays shareable.

No JS? Fill the form by hand. The geolocation button needs JavaScript.